Weather Roundup
Issued by NWS

Home | Current Version | Previous Version | Text Only | Print | Product List | Glossary On
Versions: 1 2 3 4 5 6 7 8 9 10 11 12 13 14 15 16 17 18 19 20 21 22 23 24 25 26 27 28 29 30 31 32 33 34 35 36 37 38 39 40 41 42 43 44 45 46 47 48 49 50
000
NZUS93 KARX 211610
HRRWXR

CURRENT HOURLY OBSERVATIONS ACROSS
MUCH OF THE UPPER MISSISSIPPI VALLEY
NATIONAL WEATHER SERVICE LA CROSSE WI
1100 AM CDT SUN SEP 21 2014


...SOUTHEAST MINNESOTA...


CITY           SKY/WX    TMP DP  RH WIND       PRES   REMARKS
ROCHESTER      PTSUNNY   58  49  72 N20G25    30.10R
ROCHESTER/MAYO CLOUDY    56  47  70 NW17G24   30.09R
WINONA         CLOUDY    61  48  63 N12G18    30.05R
AUSTIN         CLOUDY    55  48  76 NW12G20   30.11R
ALBERT LEA     CLOUDY    57  50  77 NW15      30.13R
DODGE CENTER   CLOUDY    55  48  76 N13G22    30.11R
PRESTON        PTSUNNY   56  53  89 N18G24    30.07S
OWATONNA       CLOUDY    55  48  76 N12G18    30.13R
FARIBAULT      PTSUNNY   61  46  59 N10       30.13R
$$

...ELSEWHERE IN MINNESOTA...


CITY           SKY/WX    TMP DP  RH WIND       PRES   REMARKS
MINNEAPOLIS    PTSUNNY   58  49  72 NW16      30.12R
INTNL FALLS    SUNNY     53  42  66 NE7       30.15R
DULUTH         MOSUNNY   57  43  59 N13       30.08R
RED WING       CLOUDY    59  48  67 N7G16     30.09R
REDWOOD FALLS  MOSUNNY   59  50  72 NW10      30.18R
MANKATO        MOSUNNY   61  46  59 N16       30.14R
WORTHINGTON    PTSUNNY   61  46  59 NW18      30.21R
FAIRMONT       MOSUNNY   61  45  55 NW12G17   30.16R
$$

...SOUTHWEST WISCONSIN...


CITY           SKY/WX    TMP DP  RH WIND       PRES   REMARKS
LA CROSSE      CLOUDY    61  50  67 N18G26    30.02R
PRAIRIE DU CHI CLOUDY    58  49  72 NW9G21    30.02R
BOSCOBEL       CLOUDY    60  51  72 NW6       30.00R
LONE ROCK      CLOUDY    64  51  62 NW10G21   29.97R
PLATTEVILLE    CLOUDY    57  51  81 NW9G20    30.00R
FORT MC COY    CLOUDY    57  50  76 NW14      30.00R
CAMP DOUGLAS   PTSUNNY   59  55  88 N9G22     29.98R
VIROQUA        CLOUDY    56  54  95 N10       30.01R
WIS DELLS      PTSUNNY   60  50  70 NW14G20   29.94R
$$

...ELSEWHERE IN WISCONSIN...


CITY           SKY/WX    TMP DP  RH WIND       PRES   REMARKS
MILWAUKEE      LGT RAIN  58  53  84 NW13G21   29.86R
MADISON        PTSUNNY   62  52  69 N12G25    29.92R
GREEN BAY      PTSUNNY   57  50  77 N17G28    29.89R
EAU CLAIRE     MOSUNNY   58  45  62 N13G23    30.05R
BLACK RVR FLS  CLOUDY    60  47  62 N15G21    30.01R
MEDFORD        CLOUDY    52  44  74 N15G23    30.00R
WAUSAU         PTSUNNY   53  43  68 N17G28    29.96R
WIS RAPIDS     MOSUNNY   58  46  64 N20G33    29.98R
MARSHFIELD     PTSUNNY   57  45  64 N21G31    29.99R
RICE LAKE      PTSUNNY   57  46  66 NW12G17   30.07R
$$

...NORTHEAST IOWA...


CITY           SKY/WX    TMP DP  RH WIND       PRES   REMARKS
WATERLOO       CLOUDY    57  49  74 NW16      30.08R
DUBUQUE        CLOUDY    56  50  80 NW15      30.01R
DECORAH        CLOUDY    57  52  82 NW16G24   30.04R
MASON CITY     CLOUDY    58  50  75 N17       30.13R
CHARLES CITY   CLOUDY    57  50  77 NW15G23   30.10R
OELWEIN        CLOUDY    57  50  77 NW18G26   30.07R
$$

...ELSEWHERE IN IOWA...


CITY           SKY/WX    TMP DP  RH WIND       PRES   REMARKS
DES MOINES     MOSUNNY   66  47  50 N16G25    30.12R
IOWA CITY        N/A     62  51  67 N15G24    30.06R
FORT DODGE     SUNNY     63  46  55 N9G21     30.16S
MARSHALLTOWN   MOSUNNY   63  49  60 N18       30.10R
CEDAR RAPIDS   CLOUDY    59  50  72 NW20G28   30.06R
$$

...NORTHERN ILLINOIS...


CITY           SKY/WX    TMP DP  RH WIND       PRES   REMARKS
CHICAGO-OHARE  CLOUDY    63  50  62 NW22      29.87R
DUPAGE         CLOUDY    60  50  69 NW17G28   29.89R
CHICAGO-MIDWAY CLOUDY    63  51  65 NW20G29   29.87R
MOLINE         CLOUDY    62  50  64 NW15G23   30.01R
ROCKFORD       CLOUDY    60  50  69 NW13G22   29.95R
STERLING       PTSUNNY   63  52  67 N20G25    29.96R
PEORIA         SUNNY     68  49  50 NW15G30   29.97R
$$

NOTE: "FAIR" INDICATES FEW OR NO CLOUDS BELOW 12,000 FEET WITH NO
SIGNIFICANT WEATHER AND/OR OBSTRUCTIONS TO VISIBILITY. WIND
SPEEDS ARE IN MILES-PER-HOUR.



USA.gov is the U.S. government's official web portal to all federal, state and local government web resources and services.